STARLINK-3107, 49171

Orbit data source: Space-Track

STARLINK-3107, 49171 is a payload satellite owned by SpaceX/Seattle (US) in LEO that was launched on Tue, 14 Sep 2021 UTC via an FALCON 9 launch vehicle from the Air Force Western Test Range (AFWTR). Payload-class satellites include a variety of spacecraft equipped with specific instruments for various scientific and technological missions. These include communications satellites like Starlink; space stations such as the ISS; scientific satellites like the Hubble; Earth observation satellites from companies like Planet Labs, Umbra, and HawkEye 360; GPS; miniature CubeSats for education and research; and military/defense satellites.

Loading next visibility...
Identifier
49171, 2021-082AT
Orbit
LEO
Country
Flag of USUS
Related business
Manufacturer
SpaceX/Seattle
Mission
Partially operational Commercial Communications
Bus & Motor
STARLINK, Unknown motor
Mass
297 kg wet, ~275 kg dry
Launch date (UTC)
2021-09-14 (5 years ago)
Launch vehicle
FALCON 9
Launch site
Air Force Western Test Range (AFWTR)
Object type
Payload
Rocket body
Debris
Shape & HBR
Box + 1 Pan, 10.1 m
Radar Cross Section
13.562 m², Large (>1 m²)

Expand to show TLE details & history
Last TLE update: 15 hours ago

TLE from 15 hours ago
0 STARLINK-3107
1 49171U 21082AT  26125.41974118  .00018765  00000-0  10643-2 0  9999
2 49171  69.9904 141.8457 0004504 219.4644 140.6195 15.12979217255871
Epoch: 2026-05-05T10:04Z
TLE epoch observation values (Epoch: 2026-05-05T10:04:25.637Z)
Latitude
-0.00006°
Longitude
127.44401°
Altitude
531.964 km
Speed
7.596 km/s
True Right ascension
09h 27m 22s
True Declination
0° 00' 00"
Sunlit
Object was in daylight at epoch
Visualization orbit readout
Latitude
Unknown
Longitude
Unknown
Altitude
Unknown
Speed
Unknown
Apparent Right ascension
Unknown
Apparent Declination
Unknown
Sunlit
N/A
Visualization observer readout
Local Sidereal Time
09:06:22
Azimuth
Unknown
Elevation
Unknown
Doppler factor
Unknown
Orbital elements
Apogee altitude
528.165 km
Perigee altitude
521.947 km
Semi-major axis
6,903.193 km
Eccentricity
0.00045
Inclination
69.9904°
RAAN
141.8457°
Arg. of periapsis
219.4644°
True anomaly
140.65223°
Mean anomaly
140.6195°
Eccentric anomaly
140.63587°
Mean motion
3.78415 °/min
Orbital period
95.13 mins
BSTAR
0.0010643
Loading maneuver chart data...
Computing Atmospheric mass density...
Loading historical data...
Loading historical data...
Loading historical data...
Loading historical data...
Loading historical data...
Loading historical data...
Loading historical data...

Documentation

Showing up to 5 results
|